Regional Weather Roundup
Issued by NWS

Home | Current Version | Previous Version | Text Only | Print | Product List | Glossary Off
Versions: 1 2 3 4 5 6 7 8 9 10 11 12 13 14 15 16 17 18 19 20 21 22 23 24 25 26 27 28 29 30 31 32 33 34 35 36 37 38 39 40 41 42 43 44 45 46 47 48 49 50

000
ASUS44 KMEG 280900
RWRTN
TENNESSEE HOURLY STATE WEATHER ROUNDUP
NATIONAL WEATHER SERVICE MEMPHIS TN
300 AM CST SAT FEB 28 2015

TNZ002-004-019-021-049-052-054-088>092-281000-
WEST TENNESSEE

CITY           SKY/WX    TMP DP  RH WIND       PRES   REMARKS
MEMPHIS INTL   CLOUDY    29  13  51 NE8       30.51S WCI  21
NWS MEMPHIS      N/A     28 N/A N/A MISG        N/A
JACKSON        CLOUDY    28  10  46 E8        30.53S WCI  20
DYERSBURG      MOCLDY    25   7  46 NE7       30.57F WCI  17
UNION CITY     CLOUDY    21  12  68 NE8       30.56S WCI  12
PARIS          CLOUDY    19  10  68 NE8       30.54F WCI   9
LEXINGTON      CLOUDY    25   7  46 NE5       30.51F WCI  19
SAVANNAH       PTCLDY    27   9  46 NE5       30.51F WCI  21
$$

TNZ008-025-027-028-033-062-065-066-281000-
NORTH MIDDLE TENNESSEE

CITY           SKY/WX    TMP DP  RH WIND       PRES   REMARKS
NASHVILLE      CLOUDY    25  10  53 NE8       30.56S WCI  16
CLARKSVILLE    CLOUDY    23  12  62 E8        30.57F WCI  14
COOKEVILLE     CLOUDY    23  10  58 CALM      30.51S
CROSSVILLE     CLOUDY    20  11  68 E7        30.47F WCI  11
$$

TNZ061-075-076-078-094-096-097-281000-
SOUTH MIDDLE TENNESSEE

CITY           SKY/WX    TMP DP  RH WIND       PRES   REMARKS
FAYETTEVILLE   CLEAR     25  12  58 NE7         N/A  WCI  17
TULLAHOMA      CLEAR     25  10  54 NE8       30.48F WCI  16
WINCHESTER     CLOUDY    25  16  68 NE6       30.49F WCI  18
COLUMBIA         N/A     25  10  54 NE6       30.51S WCI  18
SHELBYVILLE    CLOUDY    25  12  58 N3        30.52F
$$

TNZ017-018-042-046-047-281000-
NORTHEAST TENNESSEE

CITY           SKY/WX    TMP DP  RH WIND       PRES   REMARKS
TRI CITIES     CLOUDY    17  13  84 CALM      30.53S
ELIZABETHTON   MOSUNNY   16  12  86 CALM      30.52S
$$

TNZ012-013-036-069-073-074-281000-
CENTRAL EAST TENNESSEE

CITY           SKY/WX    TMP DP  RH WIND       PRES   REMARKS
KNOXVILLE      MOCLDY    25  12  58 N7        30.53S WCI  17
OAK RIDGE      CLOUDY    27  11  51 VRB3      30.56R
GATLINBURG     CLOUDY    19  18  93 CALM      30.53S
$$

TNZ083-085-099-281000-
SOUTHEAST TENNESSEE

CITY           SKY/WX    TMP DP  RH WIND       PRES   REMARKS
CHATTANOOGA    CLOUDY    30  13  49 N8        30.53R WCI  22
$$

SKY/WX REPORTED AS FAIR MEANS FEW OR NO CLOUDS BELOW
12 THOUSAND FEET.




USA.gov is the U.S. government's official web portal to all federal, state and local government web resources and services.